TimePST,TemperatureF,Dew PointF,Humidity,Sea Level PressureIn,VisibilityMPH,Wind Direction,Wind SpeedMPH,Gust SpeedMPH,PrecipitationIn,Events,Conditions,WindDirDegrees,DateUTC
12:53 AM,44.1,42.1,93,29.93,10.0,West,3.5,-,N/A,,Clear,270,2014-02-25 08:53:00
1:53 AM,44.1,42.1,93,29.93,6.0,Calm,Calm,-,N/A,,Clear,0,2014-02-25 09:53:00
2:53 AM,41.0,39.9,96,29.92,8.0,NNW,3.5,-,N/A,,Clear,340,2014-02-25 10:53:00
3:53 AM,41.0,39.9,96,29.91,5.0,Calm,Calm,-,N/A,,Clear,0,2014-02-25 11:53:00
4:53 AM,41.0,39.9,96,29.92,8.0,SW,3.5,-,N/A,,Clear,220,2014-02-25 12:53:00
5:33 AM,39.9,39.0,97,29.94,8.0,Calm,Calm,-,N/A,,Scattered Clouds,0,2014-02-25 13:33:00
5:41 AM,39.9,39.0,97,29.95,9.0,Calm,Calm,-,N/A,,Mostly Cloudy,0,2014-02-25 13:41:00
5:53 AM,39.9,39.0,97,29.93,7.0,Calm,Calm,-,N/A,,Overcast,0,2014-02-25 13:53:00
6:16 AM,43.0,42.1,97,29.96,7.0,Calm,Calm,-,N/A,,Overcast,0,2014-02-25 14:16:00
6:30 AM,43.0,41.0,93,29.96,7.0,Calm,Calm,-,N/A,,Mostly Cloudy,0,2014-02-25 14:30:00
6:41 AM,42.1,41.0,96,29.96,7.0,Calm,Calm,-,N/A,,Scattered Clouds,0,2014-02-25 14:41:00
6:53 AM,42.1,41.0,96,29.95,5.0,Calm,Calm,-,N/A,,Scattered Clouds,0,2014-02-25 14:53:00
7:08 AM,41.0,39.9,96,29.96,2.5,Calm,Calm,-,N/A,Fog,Shallow Fog,0,2014-02-25 15:08:00
7:27 AM,41.0,39.9,96,29.96,0.2,WNW,4.6,-,N/A,Fog,Fog,300,2014-02-25 15:27:00
7:53 AM,42.1,42.1,100,29.95,0.2,West,4.6,-,N/A,Fog,Fog,280,2014-02-25 15:53:00
8:53 AM,45.0,45.0,100,29.95,0.2,Calm,Calm,-,N/A,Fog,Fog,0,2014-02-25 16:53:00
9:28 AM,46.0,46.0,100,29.98,1.0,Calm,Calm,-,N/A,,Overcast,0,2014-02-25 17:28:00
9:53 AM,48.0,46.0,93,29.96,1.0,Calm,Calm,-,N/A,,Overcast,0,2014-02-25 17:53:00
9:55 AM,48.0,46.0,93,29.97,3.0,Variable,4.6,-,N/A,,Overcast,0,2014-02-25 17:55:00
10:53 AM,52.0,46.9,83,29.96,5.0,South,5.8,-,N/A,,Haze,170,2014-02-25 18:53:00
11:34 AM,54.0,48.0,80,29.97,6.0,South,5.8,-,N/A,,Haze,190,2014-02-25 19:34:00
11:53 AM,57.0,48.0,72,29.95,6.0,South,5.8,-,N/A,,Haze,170,2014-02-25 19:53:00
12:53 PM,60.1,48.9,67,29.92,6.0,Variable,6.9,-,N/A,,Haze,0,2014-02-25 20:53:00
1:53 PM,62.1,48.9,62,29.90,6.0,South,10.4,-,N/A,,Haze,190,2014-02-25 21:53:00
2:53 PM,61.0,48.9,64,29.89,6.0,SSW,9.2,-,N/A,,Haze,210,2014-02-25 22:53:00
3:53 PM,60.1,48.0,64,29.89,6.0,SW,11.5,-,N/A,,Haze,230,2014-02-25 23:53:00
4:53 PM,55.0,46.9,74,29.91,6.0,SW,10.4,-,N/A,,Haze,220,2014-02-26 00:53:00
5:53 PM,53.1,46.0,77,29.91,6.0,South,4.6,-,N/A,,Haze,170,2014-02-26 01:53:00
6:53 PM,52.0,46.0,80,29.91,10.0,SSW,4.6,-,N/A,,Clear,210,2014-02-26 02:53:00
7:53 PM,51.1,46.0,83,29.92,10.0,Calm,Calm,-,N/A,,Scattered Clouds,0,2014-02-26 03:53:00
8:53 PM,51.1,46.0,83,29.92,10.0,Calm,Calm,-,N/A,,Clear,0,2014-02-26 04:53:00
9:53 PM,50.0,46.0,86,29.91,10.0,NE,3.5,-,N/A,,Clear,50,2014-02-26 05:53:00
10:53 PM,48.9,46.0,90,29.89,10.0,Calm,Calm,-,N/A,,Clear,0,2014-02-26 06:53:00
11:53 PM,48.9,46.0,90,29.94,10.0,Calm,Calm,-,N/A,,Mostly Cloudy,0,2014-02-26 07:53:00